Regional Weather Roundup
Issued by NWS

Home | Current Version | Previous Version | Graphics & Text | Print | Product List | Glossary On
Versions: 1 2 3 4 5 6 7 8 9 10 11 12 13 14 15 16 17 18 19 20 21 22 23 24 25 26 27 28 29 30 31 32 33 34 35 36 37 38 39 40 41 42 43 44 45 46 47 48 49 50
000
ASUS43 KMKX 230911
RWRWI

WISCONSIN REGIONAL WEATHER ROUNDUP
NATIONAL WEATHER SERVICE MILWAUKEE/SULLIVAN WI
400 AM CDT WED APR 23 2014

NOTE: "FAIR" INDICATES FEW OR NO CLOUDS BELOW 12,000 FEET WITH NO
SIGNIFICANT WEATHER AND/OR OBSTRUCTIONS TO VISIBILITY.

WIZ001-002-006>008-014>016-023>028-231000-
NORTHWEST WISCONSIN

CITY           SKY/WX    TMP DP  RH WIND       PRES   REMARKS
SUPERIOR ARPT  CLEAR     29  28  94 NE5       30.14S WCI  24
ASHLAND        CLEAR     24  23  96 SW5       30.15S WCI  18
HAYWARD        CLEAR     24  21  88 CALM      30.13S
SIREN          CLEAR     28  25  87 CALM      30.11R
RICE LAKE      CLEAR     28  26  94 CALM      30.14R
LADYSMITH      CLEAR     29  26  88 CALM      30.15R
EAU CLAIRE     CLEAR     31  25  78 CALM      30.12R
MENOMONIE      SUNNY     36  28  72 CALM      30.12S
NEW RICHMOND   PTCLDY    37  27  66 SE5       30.11S WCI  34
OSCEOLA        PTCLDY    38  28  66 SE6       30.13S WCI  34
$$

WIZ003>005-009-010-017-018-231000-
NORTH CENTRAL WISCONSIN

CITY           SKY/WX    TMP DP  RH WIND       PRES   REMARKS
WOODRUFF       CLEAR     23  11  60 CALM      30.13S
RHINELANDER    CLEAR     22  20  92 CALM      30.14R
EAGLE RIVER    CLEAR     22  22  99 CALM      30.13S
LAND O LAKES   CLEAR     20  19  96 CALM      30.14R
PHILLIPS       CLEAR     25  23  91 CALM      30.13S
TOMAHAWK       CLEAR     22  20  93 CALM      30.14S
MEDFORD        CLEAR     28  25  89 E6        30.13R WCI  21
MERRILL        CLEAR     24  23  94 CALM      30.14S
$$

WIZ029-030-035-036-043>047-231000-
CENTRAL WISCONSIN

CITY           SKY/WX    TMP DP  RH WIND       PRES   REMARKS
WAUSAU         CLEAR     29  25  85 CALM      30.13S
MOSINEE        CLEAR     32  28  86 NE3       30.14S
MARSHFIELD     CLEAR     33  25  72 NE3       30.13S
STEVENS POINT  CLEAR     26  22  85 CALM      30.15S
WAUPACA        CLEAR     30  27  86 CALM      30.16R
WAUTOMA        CLEAR     27  25  92 NE6       30.15S WCI  21
WISC RAPIDS    CLEAR     29  25  85 CALM      30.15S
CAMP DOUGLAS   CLEAR     26  26 100 CALM      30.14R
$$

WIZ011>013-019>022-031-037>040-048>050-231000-
NORTHEAST WISCONSIN

CITY           SKY/WX    TMP DP  RH WIND       PRES   REMARKS
ANTIGO         CLEAR     28  27  97 CALM      30.13S
STURGEON BAY   CLEAR     30  23  74 NW5       30.13S WCI  25
GREEN BAY      CLEAR     33  27  78 NW5       30.15R WCI  29
MANITOWOC      CLEAR     32  27  81 NW5       30.15R WCI  27
APPLETON       CLEAR     32  27  80 NW5       30.15R WCI  27
CLINTONVILLE   CLEAR     30  28  93 CALM      30.15R
OSHKOSH        CLEAR     34  26  72 N3        30.14R
$$

WIZ032>034-041-042-053>061-231000-
SOUTHWEST WISCONSIN

CITY           SKY/WX    TMP DP  RH WIND       PRES   REMARKS
LA CROSSE      CLEAR     39  27  62 E6        30.13R WCI  35
SPARTA         CLEAR     28  24  85 CALM      30.14R
VIROQUA        FAIR      34  27  76 E8        30.11S WCI  27
BOSCOBEL       CLEAR     33  29  85 CALM      30.13R
PRAIRIE DU CHI PTCLDY    40  29  63 E3        30.12R
PLATTEVILLE    FAIR      34  27  75 E5        30.13R WCI  30
$$

WIZ056-057-062-063-064-067-068-231000-
SOUTH CENTRAL WISCONSIN

CITY           SKY/WX    TMP DP  RH WIND       PRES   REMARKS
BARABOO/DELLS  CLEAR     33  26  73 NE3       30.13S
LONE ROCK      CLEAR     33  28  81 NE3       30.13R
WATERTOWN      CLEAR     33  28  82 CALM      30.13R
MADISON        CLEAR     32  27  81 CALM      30.14R
MIDDLETON      FAIR      31  27  86 CALM      30.14R
MONROE         CLEAR     36  29  76 E5        30.11R WCI  32
JANESVILLE     CLEAR     32  28  86 E7        30.12S WCI  26
$$

WIZ051-052-058>065-066-070>072-231000-
SOUTHEAST WISCONSIN

CITY           SKY/WX    TMP DP  RH WIND       PRES   REMARKS
MILWAUKEE      CLEAR     33  26  75 N6        30.15R WCI  28
WAUKESHA       CLEAR     32  28  86 CALM      30.15R
MILWAUKEE/TIMM CLEAR     32  27  80 CALM      30.15R
RACINE         CLEAR     33  27  78 N8        30.15S WCI  26
BURLINGTON     CLEAR     26  24  93 CALM      30.13R
KENOSHA        CLEAR     32  27  81 N5        30.13R WCI  27
FOND DU LAC    CLEAR     30  27  88 CALM      30.15R
SHEBOYGAN      CLEAR     33  26  75 N6        30.14R WCI  28
WEST BEND      CLEAR     30  28  93 CALM      30.14R
JUNEAU         CLEAR     35  26  71 CALM      30.14S
$$

LSZ147-162-231000-
LAKE SUPERIOR

STATION/POSITION TIME  TEMP    WIND        PRES    WAVE
                       AIR SEA DIR/SP/G            HT/PER
                 (UTC) (F)     (DEG/KT/KT) (MB)    (FT/S)
DEVILS ISLAND    0900   33      70/  3/  3 1021.7S
PORT WING        0800   27     180/  3/  4 1020.7S
SAXON HARBOR     0800          190/  2/  4 1020.7S
$$

LMZ867-665-643>646-231000-
LAKE MICHIGAN

STATION/POSITION TIME  TEMP    WIND        PRES    WAVE
                       AIR SEA DIR/SP/G            HT/PER
                 (UTC) (F)     (DEG/KT/KT) (MB)    (FT/S)
NORTHPORT PIER   0800   31     310/  9/ 13 1020.0S
SISTER BAY       0809   31      10/  8/  9   N/A
KEWAUNEE LAKESHO 0800   31     310/  4/  5 1020.9R
SHEBOYGAN LAKESH 0900   37      20/  9/ 10 1021.5R
PORT WASHINGTON  0800   35     310/  4/  5 1021.0
MILWAUKEE LAKESH 0800   36      10/  7/  9   N/A
KENOSHA   LAKESH 0900   38      20/ 15/ 17   N/A
$$

TC  - TEMPERATURE IN CELSIUS
VSB - VISIBILITY IN STATUTE MILES
WCI - WIND CHILL INDEX
HX  - HEAT INDEX




USA.gov is the U.S. government's official web portal to all federal, state and local government web resources and services.